Flag for Colombia Weather past 2 weeks in Villavicencio, Colombia

Now
64 °F

Overcast.


Feels Like: 64 °F
Forecast: N/A
Wind: 8 mph from East

Location: Bogota / Eldorado

Current Time: Jul 4, 2015 at 6:06:36 PM

Latest Report: Jul 4, 2015 at 5:00 PM


Visibility: N/A

Pressure: 30.25 "Hg

Humidity: 49%

Dew point: 45 °F

Location of VillavicencioLocation

Historic Weather in Villavicencio — Graph

°F

Villavicencio temperature yesterday

Maximum temperature yesterday: 68 °F (at 2:00 PM)
Minimum temperature yesterday: 48 °F (at 12:00 AM)
Average temperature yesterday: 58 °F

Past Weeks' High & Low Weather Summary

 TemperatureHumidityPressure
High81 °F (Jun 22, 2:00 PM)100% (Jun 22, 6:00 AM)30.43 "Hg (Jun 22, 6:00 AM)
Low45 °F (Jun 30, 4:00 AM)37% (Jul 2, 12:00 PM)29.97 "Hg (Jun 22, 2:00 PM)
Average57 °F71%30.35 "Hg
* Reported Jun 19 5:00 PM — Jul 4 5:00 PM, Villavicencio, Weather by CustomWeather, © 2015

Note: Actual official high and low records may vary slightly from our data, if they occured in-between our weather recording intervals... More about our weather records

Advertising

Villavicencio weather history for previous 24 hours

 ConditionsComfort  
Time TempWeatherWind HumidityBarometerVisibility
5:00 PM
Sat, Jul 4
64 °FOvercast.8 mph49%30.25 "HgN/A
4:00 PM66 °FPartly sunny.12 mph49%30.25 "HgN/A
3:00 PM64 °FBroken clouds.13 mph49%30.26 "HgN/A
2:00 PM66 °FPartly sunny.12 mph46%30.29 "HgN/A
1:00 PM66 °FPartly sunny.12 mph46%30.30 "HgN/A
12:00 PM64 °FPartly sunny.14 mph49%30.32 "HgN/A
11:00 AM63 °FPartly sunny.13 mph52%30.33 "HgN/A
10:00 AM63 °FScattered showers. Partly sunny.9 mph56%30.34 "HgN/A
9:00 AM59 °FScattered showers. Partly sunny.8 mph68%30.35 "HgN/A
8:00 AM59 °FScattered showers. Partly sunny.12 mph63%30.33 "HgN/A
7:00 AM57 °FScattered showers. Partly sunny.10 mph72%30.30 "HgN/A
6:00 AM54 °FDrizzle. Overcast.9 mph88%30.30 "Hg5 mi
5:00 AM54 °FPassing clouds.8 mph88%30.28 "HgN/A
4:00 AM54 °FPassing clouds.7 mph88%30.27 "HgN/A
3:00 AM54 °FPassing clouds.6 mph88%30.29 "HgN/A
2:00 AM54 °FPassing clouds.3 mph88%30.30 "HgN/A
1:00 AM54 °FPassing clouds.8 mph88%30.31 "HgN/A
12:00 AM57 °FPassing clouds.6 mph72%30.32 "HgN/A
11:00 PM
Fri, Jul 3
59 °FScattered showers. Passing clouds.7 mph68%30.33 "HgN/A
10:00 PM59 °FPassing clouds.6 mph68%30.33 "HgN/A
9:00 PM55 °FPassing clouds.6 mph82%30.31 "HgN/A
8:00 PM57 °FScattered showers. Passing clouds.7 mph82%30.29 "HgN/A
7:00 PM57 °FScattered showers. Passing clouds.5 mph82%30.28 "HgN/A
6:00 PM63 °FScattered showers. Partly sunny.14 mph59%30.26 "HgN/A
Weather by CustomWeather, © 2015

See weather overviewHow to use our weather pages